RH
78 75 76 78 81 77 66 51 40 49 54 54 66 70 78 84 82 81 80 73 45 27 30 32 63 63 56 55 31 42 83 74 72 55 50 41 70 79 86 86 78 78 77
77 70 72 78 81 84 75 65 54 64 69 66 64 68 67 72 57 48 40 32 29 38 28 22 24 59 30 29 21 27 61 79 60 45 49 54 42 69 82 82 75 82 78
91 86 71 77 81 84 86 80 70 63 60 57 54 49 43 40 36 36 35 39 56 45 40 34 28 27 24 22 21 22 38 82 78 75 71 60 52 45 84 68 47 45 50
84 84 74 83 86 86 86 84 82 80 76 71 64 60 56 48 46 49 54 72 75 62 50 45 38 36 34 26 21 19 20 40 71 80 84 82 67 78 78 51 38 37 37
88 74 82 86 86 86 86 85 84 83 81 79 80 76 72 66 59 72 63 80 79 73 62 56 48 39 44 42 32 23 23 22 64 78 84 87 82 74 58 50 40 34 29
97 75 70 72 71 71 70 71 70 69 67 65 63 64 70 74 72 67 72 72 74 74 67 63 60 47 44 56 53 54 27 31 60 88 74 77 87 82 52 47 37 37 40
94 94 76 59 52 45 42 47 55 63 66 67 68 68 68 69 72 74 72 68 71 72 71 66 68 66 51 46 65 60 53 38 68 80 98 89 92 87 55 47 44 53 67
80 82 66 64 66 64 39 28 25 25 32 46 59 66 69 69 69 68 72 76 73 74 75 71 67 74 70 53 39 63 61 52 68 80 78 82 96 85 56 47 52 73 70
54 48 47 46 52 55 56 36 29 27 26 24 24 29 44 59 68 73 77 74 71 74 74 75 69 72 75 70 48 34 63 60 68 81 78 78 77 93 81 44 62 76 72
58 49 46 44 41 44 48 56 52 42 37 37 34 33 27 43 74 78 77 70 77 77 71 69 75 69 73 75 70 38 32 60 80 81 80 85 81 92 83 54 43 62 65
64 54 50 48 45 43 43 45 50 63 59 58 55 56 52 53 56 66 86 83 69 70 73 71 69 74 72 71 74 70 40 34 59 79 83 83 80 71 47 50 39 58 67
62 55 50 47 45 44 44 46 55 65 66 63 61 60 57 55 54 57 56 53 43 48 69 74 75 73 75 76 79 88 73 38 56 74 76 84 87 85 79 74 46 58 79
53 50 47 45 44 43 44 48 56 64 68 69 69 62 54 58 58 59 63 72 78 72 79 86 78 80 79 84 88 88 88 61 59 71 73 74 79 79 76 78 78 47 79
50 49 47 45 43 42 42 55 58 60 65 73 86 78 57 51 62 66 68 69 74 84 79 81 87 82 86 90 87 92 92 82 72 59 63 64 65 69 67 74 89 73 74
51 51 50 52 49 49 53 57 69 82 88 97 90 78 65 57 56 65 69 73 74 76 80 87 84 89 88 93 93 88 86 88 80 75 53 43 40 44 42 70 87 90 82
47 46 48 50 55 60 67 69 70 78 99 100 100 99 96 71 61 51 61 74 75 75 80 88 91 92 90 86 92 96 89 88 89 84 81 69 51 32 32 40 78 82 78
29 28 31 33 42 50 61 68 77 85 88 92 91 89 84 73 69 67 68 81 84 80 77 69 84 88 75 88 80 89 98 94 85 86 84 86 82 66 47 28 45 77 79
25 23 22 21 21 23 30 40 52 73 82 88 89 90 90 87 82 75 78 87 83 75 70 77 70 86 87 79 61 61 69 85 93 91 89 87 84 80 59 57 30 51 79
20 18 18 17 18 18 17 16 15 17 32 26 42 36 55 70 84 87 83 82 89 86 78 92 91 89 88 87 90 84 78 70 61 67 81 86 90 89 79 68 54 40 39
16 16 16 16 16 16 16 15 15 14 12 11 11 10 10 14 26 45 66 80 82 82 79 90 94 95 93 95 90 88 83 88 84 74 51 56 70 87 94 90 79 60 48
19 18 18 18 17 16 15 14 13 12 10 9 8 8 7 6 6 6 12 27 42 67 77 82 96 90 75 88 90 84 89 73 62 72 55 39 33 40 74 94 94 88 76
22 22 21 20 20 19 18 16 15 12 10 9 8 7 6 6 5 5 4 5 6 13 32 61 75 98 98 98 95 90 88 74 65 52 57 55 52 48 42 77 93 98 93
25 24 24 24 23 22 20 18 15 12 11 10 8 7 7 7 6 6 6 5 4 4 5 10 37 72 100 93 90 93 90 77 75 66 65 65 72 82 71 63 76 83 87
28 27 27 26 24 22 19 17 15 14 13 11 11 10 9 8 8 8 8 9 8 6 6 4 6 19 84 99 96 86 84 88 97 90 67 75 79 82 82 81 93 82 88
34 31 29 26 22 20 18 17 16 16 17 16 15 15 13 12 11 11 11 12 12 11 9 9 7 6 13 71 98 99 99 91 81 88 99 80 72 73 69 70 72 86 97
39 35 30 31 25 24 23 24 26 29 29 29 30 32 33 34 31 25 19 16 16 16 16 15 13 12 12 14 45 86 100 100 98 87 82 83 80 71 74 74 72 66 66
Wind_Speed
8 6 6 8 8 9 11 11 12 12 12 11 11 11 10 10 8 8 7 7 7 8 9 9 7 6 7 7 7 6 9 10 12 11 12 11 13 15 14 13 15 16 16
9 6 6 7 8 9 10 11 12 11 11 11 10 10 9 9 7 6 6 6 8 9 10 10 8 6 7 7 6 6 7 10 10 11 9 9 10 12 10 12 13 14 13
10 10 8 8 8 8 9 9 10 10 9 8 7 7 6 6 6 7 7 7 9 9 10 10 9 8 8 7 6 6 7 8 10 12 11 9 7 10 9 8 7 7 7
8 8 8 9 9 8 8 8 7 8 7 7 6 6 6 6 6 7 7 7 7 8 8 9 9 9 8 8 7 5 5 7 9 11 8 4 2 7 9 9 8 8 6
9 8 10 10 10 9 8 7 7 6 6 5 4 4 4 4 5 5 5 4 4 5 7 6 7 7 8 7 7 6 5 6 11 9 7 8 6 5 8 8 8 8 7
17 13 11 11 11 10 9 8 7 7 6 5 4 4 4 3 2 2 3 3 3 3 5 5 4 6 6 5 6 6 5 6 7 6 3 11 10 7 6 8 7 6 7
19 20 15 12 12 11 10 8 7 6 4 3 3 3 3 4 4 3 3 3 3 4 5 5 3 2 4 3 2 3 3 3 5 2 1 4 5 11 9 7 6 6 7
8 7 9 13 13 11 10 8 7 6 5 5 4 4 4 4 4 5 5 5 4 4 5 5 5 4 3 3 2 2 2 2 6 3 6 4 4 9 10 7 7 7 7
6 6 7 8 7 8 10 10 9 8 8 7 6 6 6 6 6 6 7 7 7 7 6 6 6 6 5 5 4 4 3 0 5 3 6 5 5 11 9 8 7 8 9
4 4 4 5 5 6 8 8 9 10 10 11 10 9 8 8 9 7 8 9 9 8 8 8 8 8 7 7 6 6 6 5 8 3 7 7 7 14 8 7 8 7 7
3 4 4 5 5 4 4 5 8 12 10 11 13 11 8 7 7 7 8 13 12 11 10 9 10 10 10 9 9 8 8 8 8 2 6 9 9 7 8 10 10 10 9
5 4 6 7 7 6 6 3 4 3 5 3 5 4 3 5 6 9 9 11 10 9 11 11 11 12 12 11 10 7 8 8 10 4 13 12 13 11 9 10 12 14 13
9 8 8 7 7 7 6 4 2 0 3 3 6 8 5 1 3 5 7 10 11 8 9 12 13 13 13 12 9 10 9 8 8 12 14 14 17 14 12 10 17 17 15
10 11 10 10 9 7 5 3 4 5 4 3 7 9 7 4 3 3 3 5 8 8 7 9 15 14 13 13 13 15 11 13 13 15 16 17 18 16 13 10 10 19 19
10 11 11 11 10 10 9 6 3 2 2 1 5 8 8 6 7 8 7 4 6 7 9 10 10 14 16 14 13 14 18 16 15 14 16 18 16 16 15 12 11 16 22
12 13 14 13 13 11 9 8 8 7 2 3 4 7 7 8 8 9 6 6 6 7 11 10 10 13 13 15 16 16 14 18 17 14 16 15 16 15 16 16 15 16 18
14 14 15 16 15 14 12 11 10 9 7 7 7 11 10 10 9 8 8 5 7 11 13 14 10 14 16 16 17 17 18 18 18 22 17 16 17 16 15 18 19 19 20
12 14 15 16 16 16 16 15 13 10 10 10 11 12 13 12 13 11 8 10 12 14 12 12 11 12 17 16 17 18 21 21 20 22 23 24 21 21 19 18 21 23 22
12 13 14 15 16 16 16 16 16 15 13 14 13 15 14 14 15 15 15 12 13 15 13 9 11 12 14 16 16 16 16 18 21 24 26 25 26 25 24 21 22 22 24
13 15 15 16 16 17 17 16 16 16 16 17 17 18 18 17 16 16 16 17 18 18 16 15 15 14 14 15 18 19 20 19 21 24 25 28 28 28 28 27 24 24 25
11 13 15 17 19 20 22 23 23 24 24 23 22 23 23 22 22 21 19 19 18 19 20 20 20 19 18 16 18 20 23 23 24 27 29 27 27 30 31 31 30 27 26
12 15 17 19 22 24 25 27 28 29 29 28 28 27 27 27 27 26 26 24 23 23 21 20 19 21 20 17 19 22 26 24 21 20 21 22 24 25 28 30 31 32 30
13 16 19 21 23 26 28 30 31 31 32 33 32 33 32 32 31 30 29 28 28 28 26 24 23 20 21 23 18 20 12 10 10 11 13 19 18 26 24 28 29 30 30
14 17 19 22 25 27 29 31 32 33 36 36 37 36 34 32 31 31 31 30 30 30 30 29 26 26 25 25 25 24 26 30 28 20 20 16 19 21 24 22 24 26 30
16 19 22 24 26 28 30 31 32 33 33 35 36 37 36 35 33 32 31 32 32 32 32 32 32 30 28 31 29 28 26 30 31 35 27 33 27 24 22 22 27 29 27
16 20 23 24 27 29 30 32 32 33 35 37 38 39 40 40 39 39 36 33 32 33 35 34 34 34 34 33 34 35 33 26 24 28 34 38 38 35 30 24 22 24 31
Wind_Direction
55 44 75 75 68 69 70 72 78 81 81 80 75 74 74 73 74 71 65 52 33 38 46 63 70 40 50 66 61 93 100 111 105 105 102 108 115 115 105 107 117 116 119
57 21 60 73 75 73 72 73 73 81 81 80 78 75 71 67 55 49 40 38 53 54 49 56 59 54 52 47 64 88 121 104 105 93 89 100 129 129 118 115 115 113 116
84 67 58 73 78 79 78 72 74 78 78 77 73 71 67 57 52 49 51 55 59 55 43 44 54 46 43 57 63 80 114 127 105 90 70 72 119 129 127 140 133 127 124
66 52 69 77 80 80 75 70 71 73 78 78 71 67 61 59 57 57 59 52 52 51 42 33 42 54 45 52 69 80 98 133 131 100 78 124 170 132 129 129 125 126 132
69 53 72 75 74 71 65 64 60 59 55 58 56 59 50 49 54 59 67 63 34 31 33 33 26 42 54 52 58 72 87 114 136 131 155 163 203 177 147 139 130 132 130
60 59 62 65 67 65 67 64 57 48 43 36 20 11 7 8 25 28 34 16 12 3 6 19 34 21 33 55 52 56 78 116 128 106 220 189 202 190 173 155 146 140 130
89 76 58 58 57 52 48 43 40 39 39 31 20 6 354 344 338 329 321 331 328 337 340 345 358 11 11 15 45 39 40 124 128 116 295 191 206 191 184 168 147 138 138
144 120 107 99 65 46 40 36 32 24 13 6 356 344 332 325 318 311 303 300 300 308 319 317 315 310 322 331 302 287 5 36 138 119 254 255 200 191 178 177 162 156 168
99 96 90 107 100 79 41 29 24 25 22 11 356 340 331 327 330 320 308 295 289 291 294 293 292 290 289 298 295 262 246 188 138 165 284 289 283 202 190 190 186 176 177
62 53 54 48 51 56 70 28 26 23 21 16 10 9 15 15 354 344 320 292 292 290 286 285 283 280 279 281 285 274 244 217 160 185 263 242 255 205 190 214 208 202 186
20 11 358 351 354 357 352 23 40 11 21 14 11 354 30 355 340 323 296 294 293 287 286 283 279 278 279 281 285 287 267 230 195 183 274 261 266 244 225 221 215 210 196
11 347 342 326 318 317 318 347 72 41 8 31 331 310 334 331 333 323 326 319 309 304 295 287 279 278 274 277 275 287 296 253 204 225 238 243 254 248 247 233 219 211 209
4 350 347 341 332 323 305 294 252 266 336 309 305 303 306 321 327 329 326 333 318 301 316 314 301 285 275 270 256 262 283 277 210 235 238 247 258 251 248 249 225 213 215
7 6 1 354 348 345 336 331 276 247 258 319 342 303 314 296 257 270 276 315 327 317 296 290 308 299 278 268 255 241 238 267 273 231 232 240 249 250 248 264 226 217 209
22 22 22 14 6 5 2 6 300 313 339 35 260 284 290 288 271 266 256 276 297 298 297 281 273 304 294 274 266 249 238 232 256 278 249 249 255 251 245 243 239 232 212
29 28 28 24 23 23 19 10 12 23 351 0 343 315 297 294 288 281 274 273 291 280 276 272 281 279 275 278 268 260 250 239 233 242 272 269 258 253 242 240 235 233 228
41 37 35 32 28 25 24 17 16 21 3 343 322 310 323 308 299 293 279 259 268 267 267 272 274 289 273 264 264 258 246 240 233 239 236 254 269 256 244 238 238 235 233
46 42 41 39 37 35 30 25 20 9 11 345 342 339 335 337 325 313 290 278 271 270 282 288 284 280 294 297 287 272 267 257 243 236 234 236 250 261 252 242 238 238 236
48 47 42 38 34 32 30 30 28 20 13 1 358 354 342 335 328 326 316 301 282 283 280 274 275 277 283 284 289 295 291 281 271 259 250 242 238 247 259 252 240 238 239
42 39 34 29 23 19 13 11 8 8 3 0 354 353 349 344 337 327 318 311 308 300 285 272 269 262 263 273 274 271 260 267 273 268 263 254 248 243 244 255 256 243 238
37 32 24 16 12 5 1 357 353 352 349 346 342 339 336 333 330 327 320 314 309 300 301 302 298 294 275 271 276 274 276 275 266 262 269 266 259 250 244 244 249 254 245
21 17 13 9 3 358 356 353 349 344 340 337 333 329 328 326 324 322 317 311 307 302 295 289 288 289 292 297 286 286 290 291 284 274 272 270 270 257 250 246 246 250 253
9 5 1 358 356 350 347 343 338 334 331 329 327 325 324 322 320 316 312 308 303 299 295 291 285 279 277 273 272 271 287 264 274 252 265 261 269 261 264 244 244 246 250
359 354 351 348 346 343 340 336 334 332 329 327 324 321 318 316 313 311 309 305 301 297 294 289 283 277 273 267 266 262 261 266 274 283 262 251 259 256 263 246 247 244 243
345 345 343 340 338 336 334 331 329 326 324 321 319 317 315 313 310 307 304 302 298 294 291 289 285 278 269 267 258 259 264 265 263 263 271 261 251 259 264 266 257 243 240
336 336 336 334 332 332 331 330 327 324 323 321 320 319 319 317 317 313 310 302 295 291 289 286 283 279 276 269 264 256 257 262 266 261 265 265 267 265 255 257 264 262 247